Weather History for KGRI - February, 2015

Change the Weather History Date:

Tuesday, February 24, 2015

  Actual Average Record
Temperature  
Mean Temperature 34 °F 32 °F  
Max Temperature 50 °F 43 °F 74 °F (1918)
Min Temperature 17 °F 21 °F -17 °F (1965)
Degree Days  
Heating Degree Days 31 33  
Month to date heating degree days 946 877  
Since 1 July heating degree days 4538 4633  
Cooling Degree Days 0 0  
Month to date cooling degree days 0 0  
Year to date cooling degree days 0 0  
Moisture  
Dew Point 18 °F    
Average Humidity 53    
Maximum Humidity 74    
Minimum Humidity 32    
Precipitation  
Precipitation 0.00 in 0.03 in 0.46 in (2001)
Month to date precipitation 0.70 0.56  
Year to date precipitation 1.17 1.09  
Snow  
Snow 0.00 in 0.20 in 5.00 in (1997)
Month to date snowfall 11.1 5.5  
Since 1 July snowfall 22.9 21.3  
Snow Depth 0.00 in    
Sea Level Pressure  
Sea Level Pressure 30.03 in    
Wind  
Wind Speed 12 mph (West)    
Max Wind Speed 25 mph    
Max Gust Speed 30 mph    
Visibility 10 miles    
Events      
T = Trace of Precipitation, MM = Missing Value Source: NWS Daily Summary

Daily Weather History Graph

Daily Weather History Graph

Search for Another Location

Airport or City:

Trip Planner

Search our weather history database for the weather conditions in past years. The results will help you decide how hot, cold, wet, or windy it might be!

Date:

Astronomy

Feb. 24, 2015 Rise Set
Actual Time 7:15 AM CST 6:18 PM CST
Civil Twilight 6:47 AM CST 6:46 PM CST
Nautical Twilight 6:15 AM CST 7:17 PM CST
Astronomical Twilight 5:43 AM CST 7:49 PM CST
Moon 10:48 AM CST (2/24) 12:09 AM CST (2/24)
Length of Visible Light 11h 58m
Length of Day
11h 03m
Waxing Crescent, 40% of the Moon is Illuminated
Feb 24
Waxing Crescent
Feb 25
First Quarter
Mar 5
Full
Mar 13
Last Quarter
Mar 20
New

Hourly Weather History & Observations

Time (CST) Temp. Windchill Dew Point Humidity Pressure Visibility Wind Dir Wind Speed Gust Speed Precip Events Conditions
12:53 AM 18.0 °F 2.6 °F 10.0 °F 71% 30.21 in 10.0 mi WSW 17.3 mph - N/A   Clear
1:53 AM 17.1 °F 1.0 °F 9.0 °F 71% 30.17 in 10.0 mi WSW 18.4 mph - N/A   Clear
2:53 AM 17.1 °F 2.0 °F 9.0 °F 71% 30.12 in 10.0 mi WSW 16.1 mph - N/A   Clear
3:53 AM 17.1 °F 2.5 °F 10.0 °F 74% 30.09 in 10.0 mi WSW 15.0 mph - N/A   Clear
4:53 AM 17.6 °F 4.3 °F 10.4 °F 73% 29.99 in 10.0 mi West 12.7 mph - N/A   Clear
5:53 AM 18.0 °F 5.4 °F 10.9 °F 74% 30.08 in 10.0 mi West 11.5 mph - N/A   Clear
6:53 AM 19.0 °F 7.5 °F 12.0 °F 74% 30.09 in 10.0 mi West 10.4 mph - N/A   Clear
7:53 AM 23.0 °F 13.1 °F 14.0 °F 68% 30.09 in 10.0 mi West 9.2 mph - N/A   Clear
8:53 AM 32.0 °F 23.0 °F 19.0 °F 59% 30.10 in 10.0 mi West 11.5 mph - N/A   Clear
9:53 AM 39.0 °F 30.3 °F 21.9 °F 50% 30.10 in 10.0 mi NW 16.1 mph 24.2 mph N/A   Clear
10:53 AM 41.0 °F 32.5 °F 21.9 °F 47% 30.10 in 10.0 mi NNW 17.3 mph - N/A   Clear
11:53 AM 45.0 °F 37.4 °F 23.0 °F 42% 30.09 in 10.0 mi North 18.4 mph - N/A   Clear
12:53 PM 46.9 °F - 23.0 °F 39% 30.06 in 10.0 mi North 18.4 mph 21.9 mph N/A   Clear
1:53 PM 48.9 °F - 21.9 °F 35% 30.03 in 10.0 mi North 20.7 mph 25.3 mph N/A   Clear
2:53 PM 50.0 °F - 21.9 °F 33% 30.01 in 10.0 mi NNW 17.3 mph 20.7 mph N/A   Clear
3:53 PM 50.0 °F - 21.9 °F 33% 30.00 in 10.0 mi NW 12.7 mph - N/A   Partly Cloudy
4:53 PM 48.9 °F - 21.9 °F 35% 29.99 in 10.0 mi NW 5.8 mph - N/A   Clear
5:53 PM 46.0 °F 44.8 °F 21.9 °F 39% 29.98 in 10.0 mi NW 3.5 mph - N/A   Clear
6:53 PM 35.1 °F 32.2 °F 21.0 °F 57% 29.98 in 10.0 mi SE 3.5 mph - N/A   Clear
7:53 PM 33.1 °F 28.7 °F 21.9 °F 64% 29.96 in 10.0 mi SSE 4.6 mph - N/A   Clear
8:53 PM 34.0 °F 28.0 °F 21.9 °F 61% 29.93 in 10.0 mi South 6.9 mph - N/A   Clear
9:53 PM 32.0 °F 24.8 °F 23.0 °F 69% 29.91 in 10.0 mi South 8.1 mph - N/A   Clear
10:53 PM 32.0 °F 23.6 °F 23.0 °F 69% 29.89 in 10.0 mi South 10.4 mph - N/A   Clear
11:53 PM 33.1 °F 24.9 °F 23.0 °F 66% 29.87 in 10.0 mi South 10.4 mph - N/A   Clear